Regional Weather Roundup
Issued by NWS

Home | Current Version | Previous Version | Text Only | Print | Product List | Glossary On
Versions: 1 2 3 4 5 6 7 8 9 10 11 12 13 14 15 16 17 18 19 20 21 22 23 24 25 26 27 28 29 30 31 32 33 34 35 36 37 38 39 40 41 42 43 44 45 46 47 48 49 50
000
ASUS43 KTOP 262008
RWRKS

WEATHER ROUNDUP FOR KANSAS
NATIONAL WEATHER SERVICE GOODLAND KS
200 PM CST MON JAN 26 2015

NOTE:  "FAIR" INDICATES FEW OR NO CLOUDS BELOW 12,000 FEET WITH NO
SIGNIFICANT WEATHER AND/OR OBSTRUCTIONS TO VISIBILITY.

KSZ001>006-013>018-027>032-041>047-262100-
NORTHWEST KANSAS

CITY           SKY/WX    TMP DP  RH WIND       PRES   REMARKS
GOODLAND       SUNNY     67  30  25 N15       30.14F
HAYS           SUNNY     70  32  24 N23G30    30.05F
HILL CITY      SUNNY     71  30  21 NW18G31   30.05F
RUSSELL        SUNNY     71  32  23 NW23G33   30.01F
$$

KSZ061>065-074>080-084>089-262100-
SOUTHWEST KANSAS

CITY           SKY/WX    TMP DP  RH WIND       PRES   REMARKS
DODGE CITY     SUNNY     71  28  20 N15G30    30.09F
ELKHART          N/A     68  31  25 NW13        N/A
GARDEN CITY    SUNNY     70  28  21 NW18G25   30.11F
GREAT BEND     SUNNY     72  34  25 NW21G28   30.03F
LIBERAL        SUNNY     70  34  26 N15       30.16F
PRATT          SUNNY     70  32  24 NW20G25   30.05F
$$

KSZ066>073-081>083-090>101-262100-
SOUTHEAST KANSAS

CITY           SKY/WX    TMP DP  RH WIND       PRES   REMARKS
CHANUTE        SUNNY     62  34  35 W16       29.95F
COFFEYVILLE    SUNNY     61  34  36 W10       29.97F
HUTCHINSON     SUNNY     72  35  25 W20       29.98F
MEDICINE LODGE   N/A     72  33  24 N18G30    30.02F
NEWTON         SUNNY     68  34  28 NW16      29.99F
PARSONS        SUNNY     61  35  37 W8        29.96F
WICHITA INTL   SUNNY     72  35  25 NW16      29.98F
WICHITA JABRA  SUNNY     68  35  29 NW12      29.98F
WICHITA MCCONL SUNNY     69  36  30 NW13G20   29.98F
WINFIELD       SUNNY     70  31  23 W15G23    30.00F
$$

KSZ007>012-019>026-033>040-048>060-102>105-262100-
NORTHEAST KANSAS

CITY           SKY/WX    TMP DP  RH WIND       PRES   REMARKS
CONCORDIA      SUNNY     65  34  31 N20       29.97F
EMPORIA        SUNNY     64  35  34 NW17G25   29.95S
LAWRENCE       SUNNY     60  35  39 NW14G24   29.93S
MANHATTAN      SUNNY     66  36  32 NW12G21   29.96S
MARYSVILLE     SUNNY     63  32  31 N20       29.94F
OLATHE IND     SUNNY     58  36  43 NW16      29.92F
OLATHE EXE     SUNNY     56  35  45 W15G21    29.90F
SALINA         SUNNY     69  34  27 NW21      29.98F
TOPEKA BILLARD SUNNY     63  36  36 NW14      29.93S
TOPEKA FORBES  SUNNY     65  35  33 NW15      29.93R
$$



USA.gov is the U.S. government's official web portal to all federal, state and local government web resources and services.